Tunis-Carthage

Airport
ICAO code: 
DTTA
Summary
ICAO Region: 
AFI
Territory: 
Location: 
Tunis, Tunisia,
Coordinates: 
Aerial View: 
36° 51' 3.606" N, 10° 13' 37.918" E
Metar
Observation
DTTA 170000Z 22004KT 9999 FEW033 10/06 Q1029
Station
Tunis-Carthage
Date/Time
2022-01-17 00:00:00
Wind direction
220°
Wind speed
04 kts
Lowest cloud amount
few clouds
Temperature
10°C
Dew point
6°C
Humidity
76%
QNH
1029 hPa
Weather condition
n/a

Description

Tunis - Carthage International Airport is the international airport serving Tunis in Tunisia.

Climatology

(Köppen climate classification BSh)

Runways

Designator Length Width Surface Rops
11/29 2840 45 ASP Yes/Yes
1/19 3200 45 ASP Yes/Yes
Airport map: 
Aerial View: 

Accidents and Serious Incidents at or in the vicinity of DTTA

SKYbrary Partners:

Safety knowledge contributed by: